• In Österreich
  • Länderverzeichnis
  • Für 7 Tage
  • Wassertemperatur
  • Satellitenkarten
  • Wetterkarte
  • News
  • Widgets
  • user-avatar
    Anmelden

    Stündliche Wetter Canberra

    Heute, 20 Oktober, Samstag

    Zeit Temperatur Niederschläge Wind Luftdruck Luftfeuchtigkeit
    00:00 +15°C° 0 mm 1 m/S 708 mmHg 71%
    01:00 +15°C° 0 mm 1 m/S 707 mmHg 72%
    02:00 +15°C° 0 mm 1 m/S 707 mmHg 71%
    03:00 +15°C° 0 mm 1 m/S 707 mmHg 71%
    04:00 +15°C° 0 mm 1 m/S 706 mmHg 70%
    05:00 +16°C° 0 mm 1 m/S 706 mmHg 68%
    06:00 +19°C° 0 mm 1 m/S 706 mmHg 66%
    07:00 +20°C° 0 mm 1 m/S 707 mmHg 65%
    08:00 +20°C° 0.3 mm 2 m/S 707 mmHg 64%
    09:00 +22°C° 0.3 mm 3 m/S 707 mmHg 64%
    10:00 +23°C° 0 mm 4 m/S 707 mmHg 65%
    11:00 +23°C° 2.7 mm 4 m/S 706 mmHg 70%
    12:00 +22°C° 2.7 mm 4 m/S 706 mmHg 75%
    13:00 +22°C° 2.7 mm 5 m/S 705 mmHg 80%
    14:00 +21°C° 4.1 mm 4 m/S 705 mmHg 82%
    15:00 +20°C° 4.1 mm 4 m/S 705 mmHg 84%
    16:00 +19°C° 4.1 mm 3 m/S 705 mmHg 86%
    17:00 +18°C° 0.2 mm 3 m/S 706 mmHg 87%
    18:00 +17°C° 0.2 mm 3 m/S 706 mmHg 88%
    19:00 +16°C° 0.2 mm 2 m/S 706 mmHg 88%
    20:00 +15°C° 0.2 mm 2 m/S 707 mmHg 90%
    21:00 +14°C° 0.2 mm 2 m/S 707 mmHg 92%
    22:00 +13°C° 0.2 mm 2 m/S 707 mmHg 93%
    23:00 +12°C° 0.1 mm 2 m/S 707 mmHg 94%

    Morgen, 21 Oktober, Sonntag

    Zeit Temperatur Niederschläge Wind Luftdruck Luftfeuchtigkeit
    00:00 +11°C° 0.1 mm 1 m/S 707 mmHg 95%
    01:00 +10°C° 0.1 mm 1 m/S 707 mmHg 96%
    02:00 +10°C° 0.1 mm 1 m/S 707 mmHg 96%
    03:00 +9°C° 0.1 mm 1 m/S 707 mmHg 96%
    04:00 +8°C° 0.1 mm 1 m/S 707 mmHg 96%
    05:00 +9°C° 0 mm 1 m/S 708 mmHg 94%
    06:00 +9°C° 0 mm 1 m/S 708 mmHg 92%
    07:00 +10°C° 0 mm 1 m/S 709 mmHg 90%
    08:00 +12°C° 0 mm 1 m/S 709 mmHg 82%
    09:00 +13°C° 0 mm 1 m/S 709 mmHg 75%
    10:00 +14°C° 0 mm 0 m/S 710 mmHg 67%
    11:00 +16°C° 0.1 mm 1 m/S 709 mmHg 65%
    12:00 +16°C° 0.1 mm 1 m/S 709 mmHg 63%
    13:00 +16°C° 0.1 mm 1 m/S 708 mmHg 61%
    14:00 +18°C° 0.1 mm 1 m/S 708 mmHg 60%
    15:00 +17°C° 0.1 mm 2 m/S 708 mmHg 58%
    16:00 +18°C° 0.1 mm 2 m/S 707 mmHg 57%
    17:00 +16°C° 0 mm 2 m/S 708 mmHg 65%
    18:00 +14°C° 0 mm 1 m/S 708 mmHg 73%
    19:00 +12°C° 0 mm 1 m/S 708 mmHg 81%
    20:00 +11°C° 0 mm 1 m/S 708 mmHg 83%
    21:00 +10°C° 0 mm 1 m/S 709 mmHg 85%
    22:00 +9°C° 0 mm 1 m/S 709 mmHg 87%
    23:00 +9°C° 0 mm 1 m/S 709 mmHg 88%

    übermorgen, 22 Oktober, Montag

    Zeit Temperatur Niederschläge Wind Luftdruck Luftfeuchtigkeit
    00:00 +8°C° 0 mm 1 m/S 708 mmHg 89%
    01:00 +8°C° 0 mm 1 m/S 708 mmHg 90%
    02:00 +8°C° 0 mm 1 m/S 708 mmHg 90%
    03:00 +6°C° 0 mm 0 m/S 708 mmHg 91%
    04:00 +6°C° 0 mm 0 m/S 708 mmHg 91%
    05:00 +8°C° 0 mm 0 m/S 708 mmHg 85%
    06:00 +10°C° 0 mm 1 m/S 709 mmHg 79%
    07:00 +12°C° 0 mm 1 m/S 709 mmHg 74%
    08:00 +15°C° 0 mm 1 m/S 709 mmHg 65%
    09:00 +17°C° 0 mm 2 m/S 709 mmHg 55%
    10:00 +20°C° 0 mm 3 m/S 709 mmHg 46%
    11:00 +21°C° 0 mm 3 m/S 709 mmHg 44%
    12:00 +22°C° 0 mm 3 m/S 709 mmHg 41%
    13:00 +24°C° 0 mm 3 m/S 708 mmHg 39%
    14:00 +24°C° 0 mm 3 m/S 708 mmHg 41%
    15:00 +22°C° 0 mm 3 m/S 708 mmHg 43%
    16:00 +22°C° 0 mm 3 m/S 707 mmHg 45%
    17:00 +20°C° 0 mm 3 m/S 707 mmHg 53%
    18:00 +17°C° 0 mm 2 m/S 707 mmHg 62%
    19:00 +15°C° 0 mm 2 m/S 707 mmHg 70%
    20:00 +14°C° 0 mm 1 m/S 708 mmHg 71%
    21:00 +13°C° 0 mm 1 m/S 708 mmHg 73%
    22:00 +12°C° 0 mm 1 m/S 708 mmHg 74%
    23:00 +12°C° 0 mm 1 m/S 708 mmHg 75%

    23 Oktober, Dienstag

    Zeit Temperatur Niederschläge Wind Luftdruck Luftfeuchtigkeit
    00:00 +11°C° 0 mm 1 m/S 708 mmHg 75%
    01:00 +11°C° 0 mm 1 m/S 707 mmHg 75%
    02:00 +11°C° 0 mm 1 m/S 707 mmHg 75%
    03:00 +10°C° 0 mm 1 m/S 707 mmHg 76%
    04:00 +10°C° 0 mm 1 m/S 706 mmHg 76%
    05:00 +12°C° 0 mm 1 m/S 707 mmHg 69%
    06:00 +14°C° 0 mm 1 m/S 707 mmHg 63%
    07:00 +15°C° 0 mm 1 m/S 708 mmHg 57%
    08:00 +18°C° 0 mm 2 m/S 708 mmHg 50%
    09:00 +21°C° 0 mm 4 m/S 708 mmHg 42%
    10:00 +25°C° 0 mm 5 m/S 708 mmHg 35%
    11:00 +25°C° 0 mm 5 m/S 708 mmHg 33%
    12:00 +26°C° 0 mm 5 m/S 708 mmHg 32%
    13:00 +27°C° 0 mm 5 m/S 708 mmHg 30%
    14:00 +27°C° 0 mm 5 m/S 708 mmHg 33%
    15:00 +26°C° 0 mm 4 m/S 708 mmHg 35%
    16:00 +26°C° 0 mm 4 m/S 708 mmHg 38%
    17:00 +22°C° 0 mm 3 m/S 708 mmHg 47%
    18:00 +19°C° 0 mm 3 m/S 709 mmHg 56%
    19:00 +16°C° 0 mm 2 m/S 709 mmHg 65%
    20:00 +14°C° 0 mm 2 m/S 710 mmHg 72%
    21:00 +13°C° 0 mm 2 m/S 710 mmHg 80%
    22:00 +12°C° 0 mm 2 m/S 711 mmHg 88%
    23:00 +10°C° 0 mm 2 m/S 711 mmHg 88%

    24 Oktober, Mittwoch

    Zeit Temperatur Niederschläge Wind Luftdruck Luftfeuchtigkeit
    00:00 +10°C° 0 mm 2 m/S 711 mmHg 89%
    01:00 +9°C° 0 mm 2 m/S 711 mmHg 90%
    02:00 +9°C° 0 mm 2 m/S 711 mmHg 88%
    03:00 +9°C° 0 mm 2 m/S 712 mmHg 86%
    04:00 +8°C° 0 mm 2 m/S 712 mmHg 84%
    05:00 +9°C° 0 mm 2 m/S 712 mmHg 81%
    06:00 +9°C° 0 mm 2 m/S 713 mmHg 77%
    07:00 +9°C° 0 mm 3 m/S 713 mmHg 74%
    08:00 +11°C° 0 mm 3 m/S 713 mmHg 66%
    09:00 +14°C° 0 mm 2 m/S 714 mmHg 59%
    10:00 +16°C° 0 mm 2 m/S 714 mmHg 51%
    11:00 +17°C° 0 mm 2 m/S 714 mmHg 48%
    12:00 +18°C° 0 mm 2 m/S 714 mmHg 45%
    13:00 +19°C° 0 mm 2 m/S 713 mmHg 42%
    14:00 +18°C° 0 mm 3 m/S 713 mmHg 46%
    15:00 +18°C° 0 mm 3 m/S 713 mmHg 50%
    16:00 +17°C° 0 mm 4 m/S 712 mmHg 54%
    17:00 +14°C° 0 mm 4 m/S 713 mmHg 62%
    18:00 +12°C° 0 mm 4 m/S 713 mmHg 70%
    19:00 +10°C° 0 mm 3 m/S 713 mmHg 78%
    20:00 +10°C° 0 mm 3 m/S 713 mmHg 82%
    21:00 +9°C° 0 mm 3 m/S 714 mmHg 86%
    22:00 +9°C° 0 mm 3 m/S 714 mmHg 90%
    23:00 +8°C° 0 mm 3 m/S 714 mmHg 91%

    25 Oktober, Donnerstag

    Zeit Temperatur Niederschläge Wind Luftdruck Luftfeuchtigkeit
    00:00 +8°C° 0 mm 2 m/S 714 mmHg 92%
    01:00 +8°C° 0 mm 2 m/S 713 mmHg 93%
    02:00 +8°C° 0 mm 2 m/S 713 mmHg 94%
    03:00 +8°C° 0 mm 2 m/S 713 mmHg 95%
    04:00 +7°C° 0 mm 2 m/S 713 mmHg 96%
    05:00 +8°C° 0 mm 2 m/S 713 mmHg 93%
    06:00 +9°C° 0 mm 2 m/S 714 mmHg 89%
    07:00 +10°C° 0 mm 2 m/S 714 mmHg 85%
    08:00 +13°C° 0 mm 2 m/S 714 mmHg 77%
    09:00 +14°C° 0 mm 2 m/S 714 mmHg 68%
    10:00 +16°C° 0 mm 2 m/S 714 mmHg 60%
    11:00 +18°C° 0 mm 2 m/S 713 mmHg 54%
    12:00 +20°C° 0 mm 2 m/S 713 mmHg 48%
    13:00 +23°C° 0 mm 1 m/S 713 mmHg 42%
    14:00 +23°C° 0 mm 1 m/S 712 mmHg 44%
    15:00 +21°C° 0 mm 2 m/S 712 mmHg 45%
    16:00 +21°C° 0 mm 2 m/S 711 mmHg 46%
    17:00 +19°C° 0 mm 2 m/S 711 mmHg 56%
    18:00 +16°C° 0 mm 2 m/S 711 mmHg 65%
    19:00 +14°C° 0 mm 2 m/S 712 mmHg 75%
    20:00 +13°C° 0 mm 2 m/S 712 mmHg 81%
    21:00 +10°C° 0 mm 2 m/S 712 mmHg 87%
    22:00 +9°C° 0 mm 2 m/S 712 mmHg 93%
    23:00 +9°C° 0 mm 2 m/S 712 mmHg 94%
    Mehr zeigen